Other Public Products
Issued by NWS Grand Forks, ND

Home | Current Version | Previous Version | Graphics & Text | Print | Product List | Glossary On
Versions: 1 2 3 4 5 6 7 8 9 10 11 12 13 14 15 16 17 18 19 20 21 22 23 24 25 26 27 28 29 30 31 32 33 34 35 36 37 38 39 40 41 42 43 44 45 46 47 48 49 50
000
FPUS83 KFGF 241310
OPUFGF
PRAIRIE TO PINES WEATHER ROUNDUP
NATIONAL WEATHER SERVICE EASTERN NORTH DAKOTA/GRAND FORKS ND
800 AM CDT FRI APR 24 2015

 **SATELLITE DATA USED TO AUGMENT SKY COVER AT AUTOMATED STATIONS**
 *****  WEATHER ACROSS EASTERN NORTH DAKOTA  *****

CITY           SKY/WX    TMP DP  RH WIND       PRES   REMARKS
GRAND FORKS    PTSUNNY   41  32  70 E13       29.81S
GRAND FORKS AF MOSUNNY   39  32  74 E10       29.80F
GRAND CITY NWS   N/A     39 N/A N/A E9          N/A
BUXTON         NOT AVBL
DEVILS LAKE    SUNNY     37  28  70 E18       29.75F
FARGO          CLOUDY    42  35  76 SE20G30   29.75F
WAHPETON ARPT  CLOUDY    41  32  70 SE20G25   29.74F
$$

 *****  WEATHER ACROSS CENTRAL AND WESTERN NORTH DAKOTA  *****

CITY           SKY/WX    TMP DP  RH WIND       PRES   REMARKS
JAMESTOWN      SUNNY     39  31  72 E14       29.69F
BISMARCK       SUNNY     37  28  70 E10       29.68R
MINOT          SUNNY     34  26  72 E8        29.72S
MINOT AFB      SUNNY     33  27  78 E10       29.72S
GARRISON         N/A     35  27  72 NE5       29.69S
WILLISTON      SUNNY     37  25  61 E3        29.67F
DICKINSON      SUNNY     33  23  66 E6        29.63R
HETTINGER      SUNNY     31  25  78 CALM      29.64S
$$

 *****  OTHER OBSERVATIONS NORTHEAST NORTH DAKOTA  *****

CITY           SKY/WX    TMP DP  RH WIND       PRES   REMARKS
WALHALLA       CLOUDY    39  27  60 SE7       29.84S
LANGDON        FAIR      37  28  70 E15G21    29.79F
CAVALIER       CLOUDY    37  28  70 E5        29.84F
GRAFTON        PTSUNNY   39  30  70 SE13      29.83F
CANDO          FAIR      36  28  75 SE17      29.77F
FORT TOTTEN      N/A     37  31  80 E10       29.95
ROLLA          FAIR      34  27  75 SE14      29.78F WCI  24
RUGBY          NOT AVBL
 ***** THE ABOVE OBSERVATIONS ARE NON NWS ARE NOT QUALITY
        CONTROLLED AND MAY MIS-REPORT RAIN FOR SNOW...
$$

 *****  OTHER OBSERVATIONS SOUTHEAST NORTH DAKOTA *****

CITY           SKY/WX    TMP DP  RH WIND       PRES   REMARKS
COOPERSTOWN    NOT AVBL
VALLEY CITY    PTSUNNY   39  32  75 E14G21    29.72S
OAKES            N/A     39  36  87 E21       29.67F
GWINNER        SUNNY     43  36  75 E13       29.72S
SHEYENNE NWR     N/A     41  33  74 SE14      29.95S
BUFFALO        NOT AVBL
WYNDMERE       NOT AVBL
 ***** THE ABOVE OBSERVATIONS ARE NON NWS ARE NOT QUALITY
       CONTROLLED AND MAY MIS-REPORT RAIN FOR SNOW...
$$

  *****  WEATHER ACROSS NORTHERN MINNESOTA  *****

CITY           SKY/WX    TMP DP  RH WIND       PRES   REMARKS
FLAG ISLAND    PTSUNNY   36  21  55 E7        29.92F
WARROAD        CLOUDY    36  21  55 SE8       29.91S
ROSEAU         CLOUDY    39  25  56 SE10      29.89S
HALLOCK        CLOUDY    41  25  52 SE13      29.84F
THF RVR FALLS  CLOUDY    39  28  65 E15       29.85F
HALSTAD        NOT AVBL
FOSSTON        CLOUDY    37  28  70 E15       29.84F
BAUDETTE       CLOUDY    34  17  50 SE9       29.92S
WASKISH        CLOUDY    36  19  51 CALM      29.93R
CROOKSTON      PTSUNNY   41  32  70 SE18G24   29.82F
$$
  *****  WEATHER ACROSS CENTRAL AND WEST MINNESOTA  *****

CITY           SKY/WX    TMP DP  RH WIND       PRES   REMARKS
BEMIDJI        PTSUNNY   38  28  64 SE12      29.89S
PARK RAPIDS    LGT RAIN  35  32  88 SE10G20   29.88R
WADENA         DRIZZLE   37  34  87 E12       29.84S
DETROIT LAKES  CLOUDY    37  34  87 E12       29.83S
MOORHEAD       CLOUDY    41  34  75 SE15G22   29.77F
FERGUS FALLS   CLOUDY    43  27  52 SE21      29.79F
ELBOW LAKE     RAIN      37  34  87 E14       29.77F
MORRIS MN      RAIN      39  34  81 E26       29.77F
STAPLES        LGT RAIN  36  36 100 E8        29.87F
WHEATON        CLOUDY    37  34  87 E25G32    29.74F
$$
  *****  WEATHER ELSEWHERE ACROSS MINNESOTA  *****

CITY           SKY/WX    TMP DP  RH WIND       PRES   REMARKS
DULUTH         CLOUDY    38  17  42 E12       29.99R
INTRNTL FALLS  CLOUDY    33  19  56 E9        29.95F
ELY            CLOUDY    34  19  55 SE5       30.00R
CLOQUET        CLOUDY    36  19  51 MISG      29.99S
BRAINERD       LGT RAIN  37  33  85 E7G20     29.91F
HIBBING        CLOUDY    35  15  44 SE7       29.97S
ALEXANDRIA     RAIN      37  29  72 E17       29.84R
SAINT CLOUD    CLOUDY    43  16  33 E9        29.89F
MINNEAPOLIS    CLOUDY    45  20  36 E13       29.92S
$$

  *****  WEATHER ACROSS SOUTH DAKOTA  *****

CITY           SKY/WX    TMP DP  RH WIND       PRES   REMARKS
SIOUX FALLS    PTSUNNY   50  41  71 SE13G23   29.71F
BROOKINGS      PTSUNNY   48  39  71 S25       29.71S
WATERTOWN      PTSUNNY   50  36  58 SE9       29.68R
HURON          CLOUDY    52  38  58 SE15      29.61F
SISSETON         N/A     43  36  76 SE14G22   29.72S
ABERDEEN       PTSUNNY   48  38  68 E8        29.63S
MITCHELL       PTSUNNY   53  40  61 S16       29.64F
PIERRE         PTSUNNY   52  43  71 SW3       29.55S
MOBRIDGE       MOSUNNY   46  36  68 E6        29.57R
RAPID CITY     PTSUNNY   48  40  73 N14       29.60S
$$

  *****  SOME WEATHER IN NEARBY STATES *****

CITY           SKY/WX    TMP DP  RH WIND       PRES   REMARKS
GLASGOW MT     MOCLDY    36  31  82 E7        29.62S
GREAT FALLS MT CLOUDY    45  28  51 SE5       29.62S
CHEYENNE WY    CLEAR     42  30  62 W10       29.75R
SCOTTSBLUFF NE PTCLDY    43  32  65 NW5       29.68S
OMAHA NE       LGT RAIN  56  41  57 S16       29.77S
DES MOINES IA  CLOUDY    53  28  38 SE16      29.87F
DAVENPORT IA   CLOUDY    47  18  31 SE10      30.04F
CHICAGO IL     MOSUNNY   42  25  50 W3        30.08S
EAU CLAIRE WI  CLOUDY    35  25  66 NE3       29.99S
LA CROSSE WI   CLOUDY    37  23  56 SE8       30.00S
$$

  *****  SOME NATIONAL WEATHER *****

CITY           SKY/WX    TMP DP  RH WIND       PRES   REMARKS
LA GUARDIA NY  PTSUNNY   39  22  50 NW15G26   29.88S
RALEIGH NC     MOSUNNY   53  28  38 VRB7      30.07S
ATLANTA GA     PTSUNNY   57  32  38 N10G20    30.09R
NEW ORLEANS LA CLOUDY    72  66  81 E6        29.96S
OKLAHOMA CITY  DRZL/FOG  63  61  94 S18       29.80F VSB 3/4
ALBUQUERQUE NM LGT RAIN  48  40  73 NW9       29.94R
SALT LAKE CITY MOCLDY    52  37  56 E3        29.72R
LOS ANGELES CA MOCLDY    58  51  78 SW3       29.94R
BOISE ID       LGT RAIN  46  43  89 NW9       29.75R
SEATTLE WA     CLOUDY    44  39  82 S12G20    29.78R
$$

*** WEATHER ACROSS MANITOBA...SASKATCHEWAN AND ONTARIO ***
                ***ONTARIO***

CITY           SKY/WX    TMP DP  RH WIND       PRES   REMARKS
GERALDTON      MOSUNNY   19  12  73 NW2       30.08S
THUNDER BAY    MOSUNNY   28  23  80 VRB2      30.11R
SIOUX LOOKOUT  PTSUNNY   27  16  63 SE3       30.02S
TORONTO        PTSUNNY   34  21  60 NW18      30.00R WCI  23
BIG TROUT LK   SUNNY     12   9  85 VRB2      30.11R
PICKLE LAKE    MOSUNNY   14   9  79 SE3       30.06S
DRYDEN         CLOUDY    32  14  47 SE9       29.99S WCI  24
KENORA         PTSUNNY   34  18  51 SE8       29.95F
$$
                *** MANITOBA***

CITY           SKY/WX    TMP DP  RH WIND       PRES   REMARKS
BRANDON        PTSUNNY   39  19  45 E9        29.81S
DAUPHIN        CLOUDY    37  25  60 E5        29.82S
ISLAND LAKE    PTSUNNY   18  10  73 E3        30.06S
PILOT MOUND      N/A     37  27  65 SE12        N/A
THE PAS        FLURRIES  28  23  80 E7        29.83R WCI  21
THOMPSON       CLOUDY    16   7  67 E6        30.05S WCI   7
WINNIPEG       CLOUDY    37  16  41 SE10      29.88F
CHURCHILL      LGT SNOW   7   3  85 W9        30.13S WCI  -7
GILLAM         CLOUDY     5   1  85 N3        30.16R
$$
                ***SASKATCHEWAN***

CITY           SKY/WX    TMP DP  RH WIND       PRES   REMARKS
ESTEVAN        MOSUNNY   30  25  80 E9        29.71S WCI  22
KINDERSLEY     MOCLDY    41  36  81 E13       29.60F
LLOYDMINSTER   FOG       34  34 100 NE8       29.67R VSB 3/4
PRINCE ALBERT  PTSUNNY   36  30  80 E10       29.73S
REGINA         PTSUNNY   34  28  80 SE10      29.69S
YORKTON        SUNNY     36  25  64 SE8       29.75S



USA.gov is the U.S. government's official web portal to all federal, state and local government web resources and services.